Home > Weather > Horten > Past weeks

Flag for Norway Past Weather in Horten, Norway — Yesterday and Last 2 Weeks

Now
50 °F

Passing clouds.


Feels Like: 43 °F
Forecast: 46 / 65 °F
Wind: 23 mph from Northeast

Location: Oseberg

Current Time: May 25, 2016 at 5:06:16 PM

Latest Report: May 25, 2016 at 4:20 PM


Visibility: N/A

Pressure: 30.18 "Hg

Humidity: 82%

Dew Point: 45 °F

Location of HortenLocation

Past Weather in Horten — Graph

°F

Horten Temperature Yesterday

Maximum temperature yesterday: 48 °F (at 12:50 PM)
Minimum temperature yesterday: 45 °F (at 12:50 AM)
Average temperature yesterday: 46 °F

High & Low Weather Summary for the Past Weeks

 TemperatureHumidityPressure
High54 °F (May 22, 1:50 PM)100% (May 16, 9:50 PM)30.21 "Hg (May 16, 9:50 PM)
Low39 °F (May 13, 6:50 PM)50% (May 19, 11:20 AM)29.53 "Hg (May 20, 7:20 AM)
Average46 °F81%29.91 "Hg
* Reported May 10 3:20 PM — May 25 3:50 PM, Horten, Weather by CustomWeather, © 2016

Note: Actual official high and low records may vary slightly from our data, if they occured in-between our weather recording intervals... More about our weather records

Advertising

Horten Weather History for the Previous 24 Hours

Scroll right to see more
 ConditionsComfort  
Time TempWeatherWind HumidityBarometerVisibility
3:50 PM
Wed, May 25
52 °FSunny.24 mph77%30.18 "Hg10 mi
3:20 PM52 °FSunny.23 mph77%30.18 "Hg10 mi
2:48 PM52 °FSunny.24 mph77%30.18 "Hg10 mi
2:20 PM52 °FSunny.23 mph77%30.18 "Hg10 mi
1:50 PM52 °FSunny.23 mph77%30.18 "Hg10 mi
1:20 PM50 °FPassing clouds.23 mph82%30.18 "HgN/A
12:50 PM50 °FSunny.26 mph82%30.18 "Hg10 mi
12:20 PM50 °FSunny.25 mph82%30.18 "Hg10 mi
11:50 AM52 °FSunny.25 mph77%30.18 "Hg10 mi
11:20 AM50 °FSunny.29 mph88%30.18 "Hg10 mi
10:50 AM50 °FSunny.29 mph88%30.18 "Hg10 mi
10:20 AM52 °FSunny.30 mph82%30.18 "Hg10 mi
9:50 AM52 °FSunny.30 mph82%30.18 "Hg10 mi
9:20 AM50 °FSunny.28 mph88%30.18 "Hg10 mi
8:50 AM52 °FPassing clouds.28 mph77%30.18 "HgN/A
8:20 AM52 °FPassing clouds.28 mph77%30.18 "HgN/A
7:50 AM50 °FPassing clouds.30 mph82%30.18 "HgN/A
7:20 AM50 °FPassing clouds.31 mph82%30.18 "HgN/A
6:50 AM50 °FPassing clouds.33 mph82%30.18 "HgN/A
6:20 AM48 °FPassing clouds.39 mph87%30.18 "HgN/A
5:50 AM48 °FPassing clouds.35 mph87%30.18 "HgN/A
4:50 AM46 °FPassing clouds.48 mph87%30.18 "HgN/A
3:50 AM46 °FPassing clouds.52 mph87%30.18 "HgN/A
2:50 AM46 °FPassing clouds.53 mph87%30.18 "HgN/A
1:50 AM46 °FPassing clouds.48 mph87%30.18 "HgN/A
12:50 AM46 °FPassing clouds.51 mph87%30.18 "HgN/A
11:50 PM
Tue, May 24
46 °FPassing clouds.50 mph87%30.18 "HgN/A
10:50 PM48 °FPartly sunny.44 mph82%30.21 "HgN/A
9:50 PM48 °FPartly sunny.50 mph82%30.18 "HgN/A
8:50 PM48 °FPartly sunny.48 mph82%30.18 "HgN/A
7:50 PM48 °FPartly sunny.46 mph87%30.18 "HgN/A
7:20 PM48 °FPartly sunny.43 mph87%30.21 "HgN/A
6:50 PM48 °FPartly sunny.41 mph87%30.21 "HgN/A
5:50 PM48 °FPartly sunny.41 mph87%30.21 "HgN/A
5:20 PM48 °FPartly sunny.40 mph87%30.21 "HgN/A
Weather by CustomWeather, © 2016

See weather overviewHow to use our weather pages